Vorticity
11 15 25 9 7 8 1 3 6 12 25 15 10 13 12 13 16 11 4 12 6 7 18 4 2 2 4 18 9 2 13 1 2 4 32 21 4 27 26 8 2 8 8 14 6
13 19 16 7 11 -2 7 13 8 21 10 15 -1 14 10 16 17 9 12 7 11 10 7 13 6 3 16 4 10 1 15 1 3 -1 -1 11 26 -3 8 11 7 8 8 8 6
10 23 8 10 8 -5 4 16 13 18 9 10 4 4 7 14 8 14 7 9 7 11 15 15 9 17 9 5 1 -0 5 1 4 19 7 1 -15 1 8 14 13 14 24 10 10
12 24 9 7 4 7 10 15 11 7 1 6 1 -1 14 18 9 10 3 6 12 14 11 8 27 16 18 8 4 12 2 -1 -1 -18 11 -10 -1 2 10 5 11 13 9 10 8
21 13 7 4 6 15 7 14 7 2 3 6 16 1 12 13 7 7 7 6 13 13 21 17 22 7 9 5 8 9 34 23 31 2 4 -0 1 1 22 10 4 4 5 7 7
15 11 7 18 15 -4 9 15 4 7 6 13 8 10 14 11 10 12 6 13 15 11 27 13 3 2 4 -2 -9 6 -1 2 -0 -1 6 -1 3 33 4 4 3 5 9 8 5
11 5 13 3 0 21 12 8 8 6 21 5 13 18 11 15 6 9 12 10 11 25 -6 -5 3 7 11 7 13 -0 -5 -12 0 7 -2 13 23 -0 6 5 7 7 6 3 4
14 7 7 13 11 24 6 6 6 10 10 11 7 3 10 11 5 18 18 5 15 24 -4 3 4 2 -10 7 13 10 5 8 13 33 9 8 8 2 3 7 9 11 5 6 7
14 13 6 8 27 12 9 13 14 9 10 8 2 16 9 8 14 18 6 9 9 5 11 -8 36 -10 9 0 2 3 11 15 21 7 6 4 3 2 12 8 18 11 6 7 3
6 15 1 14 31 9 14 12 10 10 7 7 19 12 15 13 9 14 3 2 6 -5 -5 15 -0 -2 -1 -8 9 25 16 6 9 6 4 4 7 10 3 15 1 7 4 6 3
1 10 13 15 19 13 3 4 8 6 15 15 13 11 3 9 6 11 10 5 -2 -3 3 1 2 3 -2 15 9 11 1 2 3 6 2 6 4 8 6 13 8 8 7 7 7
14 9 11 17 9 2 8 8 16 15 11 19 16 14 16 20 17 7 20 3 -6 -3 3 -5 4 -5 -0 -4 12 2 -1 3 7 5 9 -1 8 7 5 6 9 9 9 6 1
22 21 7 12 5 12 17 21 20 20 15 7 8 10 10 14 20 25 14 -1 0 -6 -4 1 13 20 23 8 6 7 11 -12 2 5 6 2 7 2 1 4 0 5 6 -1 3
8 22 2 13 14 25 19 14 12 10 10 10 6 9 9 10 9 9 17 15 3 -13 7 4 9 23 7 5 -0 -0 4 12 -2 1 -4 -3 -3 1 -0 3 6 6 4 7 -8
16 19 9 7 15 18 12 9 9 10 5 8 6 6 10 10 12 12 15 20 18 14 22 18 22 5 -9 1 8 15 9 7 3 1 -2 4 4 4 3 5 4 4 5 5 1
33 8 8 15 18 12 12 9 7 3 9 7 7 9 6 5 6 6 10 9 8 8 6 -3 3 18 9 9 7 7 5 3 6 8 7 4 2 6 6 9 7 8 4 -1 4
23 8 13 13 14 9 6 4 4 -1 4 5 6 6 5 3 3 4 5 6 7 6 6 8 8 8 3 4 5 5 7 5 5 3 3 5 5 11 12 15 9 6 7 6 12
13 14 8 12 5 4 4 4 4 1 6 7 6 3 5 5 6 9 7 8 4 6 5 9 8 10 8 8 6 7 5 6 5 7 13 13 10 16 13 11 14 14 16 17 17
15 9 10 3 3 4 4 4 6 10 6 2 3 3 2 3 3 3 5 8 8 10 12 11 8 12 12 12 14 17 17 15 11 10 13 20 22 20 15 16 16 15 13 12 11
13 11 6 3 3 5 4 8 4 7 3 2 2 2 1 2 3 5 5 8 8 11 9 9 8 11 13 10 7 7 8 9 16 13 18 17 8 10 4 3 3 4 4 5 7
10 10 1 3 5 5 4 5 2 6 11 6 7 8 11 13 11 9 11 10 12 18 12 10 10 8 6 9 9 8 10 9 8 6 1 -1 5 3 3 5 3 2 4 6 7
11 7 1 4 5 5 6 0 5 -0 0 5 6 13 18 15 16 16 11 8 17 9 10 12 5 8 10 6 7 7 7 2 3 6 5 6 1 1 1 3 4 3 5 2 2
11 5 1 6 6 5 4 -3 -6 1 -1 1 9 15 13 8 13 10 8 11 10 10 9 10 14 10 3 5 6 1 -1 3 4 4 2 2 4 4 5 5 5 3 3 1 3
12 1 0 5 7 5 1 0 0 0 -2 0 8 16 11 16 12 8 12 11 13 8 9 9 8 5 4 3 3 1 1 1 2 5 1 4 1 6 4 3 4 1 5 6 6
6 -3 2 6 9 4 0 -3 0 0 -2 2 6 12 15 15 15 16 16 14 9 5 9 6 5 3 5 4 4 1 -1 2 5 2 4 1 3 4 4 3 4 -1 2 2 7
6 1 5 5 6 4 1 -1 2 -1 -2 -0 3 7 13 13 15 13 12 8 6 6 7 7 3 5 3 2 1 1 1 4 2 3 -0 2 3 3 3 3 4 2 2 2 6
6 2 3 5 5 4 1 -0 1 -1 -2 -2 2 4 6 13 13 14 10 8 6 7 6 6 3 4 3 0 1 4 4 3 5 3 4 4 3 5 3 4 4 5 2 3 3
Height
5770 5766 5763 5761 5762 5761 5760 5758 5757 5755 5753 5753 5753 5754 5753 5754 5755 5758 5759 5761 5764 5767 5771 5776 5780 5784 5787 5789 5793 5795 5797 5798 5801 5805 5807 5807 5809 5811 5813 5815 5818 5819 5819 5819 5820
5765 5761 5760 5758 5757 5757 5756 5754 5753 5752 5751 5751 5752 5752 5752 5752 5753 5755 5758 5760 5762 5765 5769 5773 5777 5781 5784 5787 5791 5794 5796 5796 5800 5804 5805 5806 5807 5809 5813 5815 5816 5817 5817 5819 5820
5761 5757 5757 5755 5754 5754 5752 5751 5750 5749 5749 5749 5750 5751 5751 5750 5752 5755 5757 5759 5761 5764 5768 5772 5775 5779 5783 5787 5791 5793 5795 5796 5798 5802 5804 5806 5806 5809 5812 5813 5814 5814 5815 5817 5818
5756 5753 5753 5752 5751 5750 5748 5748 5748 5747 5748 5749 5749 5749 5749 5749 5753 5754 5756 5757 5759 5762 5767 5770 5775 5779 5783 5786 5791 5793 5795 5797 5801 5802 5803 5805 5807 5810 5813 5814 5814 5815 5816 5818 5819
5752 5750 5750 5749 5747 5746 5746 5745 5746 5746 5746 5747 5747 5747 5748 5750 5751 5753 5755 5757 5759 5761 5764 5769 5775 5779 5783 5785 5789 5793 5795 5797 5798 5801 5803 5806 5807 5810 5812 5813 5814 5815 5816 5817 5818
5748 5747 5746 5744 5743 5743 5742 5743 5743 5743 5744 5744 5745 5746 5747 5750 5752 5753 5755 5758 5761 5764 5768 5773 5777 5778 5781 5787 5791 5794 5796 5798 5800 5802 5804 5805 5808 5809 5811 5812 5813 5814 5816 5817 5818
5744 5743 5742 5741 5740 5739 5739 5740 5740 5741 5741 5742 5744 5745 5747 5750 5751 5753 5757 5760 5763 5768 5772 5775 5777 5782 5785 5788 5791 5793 5797 5799 5801 5803 5804 5807 5809 5810 5811 5812 5813 5814 5815 5815 5817
5741 5740 5739 5737 5736 5735 5736 5737 5738 5738 5739 5741 5743 5744 5745 5748 5750 5754 5757 5760 5765 5769 5772 5776 5778 5782 5785 5789 5792 5795 5797 5797 5799 5801 5804 5807 5808 5809 5809 5810 5813 5815 5814 5815 5816
5737 5737 5735 5734 5732 5732 5733 5735 5736 5737 5738 5740 5741 5742 5745 5748 5750 5755 5758 5762 5767 5770 5772 5774 5778 5782 5787 5789 5792 5794 5796 5798 5799 5800 5803 5805 5807 5808 5809 5810 5812 5812 5812 5813 5813
5733 5734 5732 5730 5729 5730 5732 5733 5734 5736 5737 5738 5739 5742 5744 5747 5751 5755 5760 5763 5767 5771 5775 5777 5780 5784 5787 5790 5792 5793 5795 5798 5799 5802 5802 5805 5806 5807 5808 5809 5810 5810 5810 5810 5810
5730 5730 5729 5727 5727 5728 5730 5732 5734 5735 5736 5737 5738 5740 5743 5746 5751 5755 5760 5764 5768 5772 5776 5779 5782 5784 5788 5790 5791 5793 5795 5797 5798 5799 5800 5802 5804 5805 5806 5808 5808 5808 5808 5808 5807
5727 5727 5726 5726 5727 5729 5730 5730 5732 5734 5734 5736 5739 5741 5745 5748 5752 5756 5762 5767 5770 5772 5777 5780 5783 5785 5788 5790 5791 5792 5794 5797 5797 5798 5800 5801 5802 5804 5804 5806 5807 5806 5805 5805 5804
5723 5723 5723 5724 5726 5728 5728 5729 5731 5733 5735 5738 5740 5743 5747 5751 5754 5757 5763 5768 5771 5774 5777 5778 5781 5784 5786 5788 5790 5792 5793 5796 5798 5798 5799 5799 5801 5802 5803 5804 5804 5804 5803 5801 5800
5720 5720 5721 5723 5725 5726 5727 5730 5732 5735 5738 5741 5742 5746 5749 5752 5756 5758 5763 5767 5770 5773 5776 5778 5780 5782 5785 5788 5790 5791 5791 5793 5795 5796 5796 5797 5798 5799 5800 5801 5801 5800 5798 5797 5797
5715 5717 5720 5721 5724 5725 5729 5731 5734 5737 5741 5744 5745 5749 5751 5754 5757 5760 5763 5767 5770 5773 5777 5780 5781 5783 5786 5788 5789 5790 5790 5791 5792 5793 5793 5794 5794 5795 5796 5796 5795 5794 5793 5792 5791
5711 5714 5718 5720 5724 5726 5729 5733 5736 5741 5743 5745 5747 5750 5753 5756 5759 5761 5764 5767 5770 5773 5776 5779 5780 5782 5785 5786 5787 5788 5788 5789 5790 5790 5790 5792 5792 5791 5792 5793 5792 5791 5789 5788 5786
5709 5712 5716 5720 5724 5727 5731 5735 5738 5741 5745 5748 5750 5752 5755 5758 5761 5763 5766 5768 5770 5773 5774 5777 5778 5781 5783 5784 5785 5786 5787 5787 5788 5787 5787 5787 5786 5787 5788 5788 5788 5786 5784 5782 5780
5706 5710 5714 5719 5724 5728 5732 5737 5740 5743 5746 5748 5752 5754 5757 5759 5762 5764 5766 5768 5770 5771 5772 5774 5777 5779 5781 5782 5783 5783 5784 5785 5784 5785 5785 5784 5784 5785 5784 5784 5783 5782 5780 5778 5776
5702 5707 5711 5718 5723 5728 5733 5737 5740 5744 5748 5751 5753 5755 5757 5760 5762 5763 5765 5767 5769 5770 5772 5773 5775 5777 5778 5779 5781 5781 5781 5783 5783 5782 5782 5782 5782 5782 5781 5781 5780 5778 5777 5774 5771
5698 5705 5710 5717 5722 5728 5733 5737 5741 5745 5749 5751 5753 5755 5757 5758 5760 5761 5763 5765 5766 5768 5769 5771 5773 5774 5776 5777 5778 5779 5780 5781 5781 5780 5780 5780 5779 5779 5778 5777 5776 5775 5772 5770 5767
5693 5701 5707 5714 5721 5727 5732 5738 5742 5745 5749 5751 5752 5753 5754 5755 5757 5758 5760 5762 5763 5765 5767 5769 5771 5774 5775 5776 5777 5778 5779 5780 5780 5780 5779 5779 5779 5777 5775 5774 5772 5770 5767 5764 5761
5690 5697 5704 5712 5719 5725 5731 5737 5741 5745 5748 5750 5751 5751 5751 5752 5754 5755 5757 5759 5761 5763 5765 5767 5769 5771 5773 5775 5776 5777 5778 5778 5778 5779 5777 5776 5777 5773 5772 5770 5767 5764 5761 5757 5753
5687 5694 5701 5709 5716 5723 5730 5736 5740 5744 5747 5749 5749 5749 5749 5750 5752 5752 5755 5757 5759 5761 5764 5766 5768 5770 5772 5775 5775 5776 5776 5775 5775 5774 5774 5773 5772 5770 5768 5765 5761 5758 5754 5750 5745
5683 5690 5697 5705 5714 5722 5728 5734 5739 5743 5745 5747 5748 5748 5749 5749 5750 5751 5753 5755 5758 5760 5763 5765 5767 5769 5771 5771 5772 5773 5773 5773 5772 5771 5770 5769 5767 5764 5762 5759 5755 5752 5748 5743 5738
5679 5686 5696 5704 5712 5719 5726 5732 5737 5742 5744 5746 5747 5748 5748 5748 5748 5749 5751 5754 5757 5759 5761 5763 5765 5766 5767 5768 5768 5769 5769 5769 5768 5767 5766 5765 5762 5757 5755 5752 5748 5744 5740 5735 5729
5676 5684 5693 5704 5711 5717 5723 5730 5736 5740 5743 5744 5746 5747 5747 5747 5748 5748 5749 5751 5754 5756 5758 5760 5762 5763 5764 5764 5764 5764 5765 5764 5763 5761 5760 5758 5756 5751 5748 5744 5740 5736 5731 5725 5719
5673 5682 5692 5700 5706 5713 5721 5729 5734 5738 5740 5742 5744 5745 5746 5746 5746 5747 5748 5750 5752 5754 5755 5757 5759 5759 5759 5760 5758 5760 5761 5758 5756 5755 5753 5751 5747 5744 5741 5737 5732 5727 5721 5716 5709